TimeMDT,TemperatureF,Dew PointF,Humidity,Sea Level PressureIn,VisibilityMPH,Wind Direction,Wind SpeedMPH,Gust SpeedMPH,PrecipitationIn,Events,Conditions,WindDirDegrees,DateUTC
12:53 AM,48.9,32.0,52,29.98,10.0,South,15.0,-,N/A,,Clear,190,2013-04-03 06:53:00
1:53 AM,48.0,33.1,56,29.99,10.0,South,15.0,-,N/A,,Clear,190,2013-04-03 07:53:00
2:53 AM,46.9,33.1,59,29.99,10.0,South,13.8,-,N/A,,Clear,190,2013-04-03 08:53:00
3:53 AM,46.0,33.1,61,30.00,10.0,South,15.0,-,N/A,,Clear,190,2013-04-03 09:53:00
4:53 AM,46.9,33.1,59,30.00,10.0,South,13.8,-,N/A,,Clear,190,2013-04-03 10:53:00
5:53 AM,46.0,33.1,61,30.01,10.0,South,13.8,-,N/A,,Clear,190,2013-04-03 11:53:00
6:53 AM,46.9,33.1,59,30.02,10.0,SSW,12.7,-,N/A,,Clear,200,2013-04-03 12:53:00
7:53 AM,48.9,34.0,56,30.04,10.0,SSW,12.7,-,N/A,,Clear,200,2013-04-03 13:53:00
8:53 AM,54.0,36.0,51,30.06,7.0,South,16.1,-,N/A,,Scattered Clouds,190,2013-04-03 14:53:00
9:53 AM,55.9,36.0,47,30.07,10.0,SSW,10.4,-,N/A,,Overcast,210,2013-04-03 15:53:00
10:53 AM,57.9,37.0,46,30.08,10.0,WSW,15.0,-,N/A,,Overcast,240,2013-04-03 16:53:00
11:53 AM,59.0,41.0,51,30.07,10.0,South,5.8,-,0.00,,Overcast,190,2013-04-03 17:53:00
12:53 PM,64.0,36.0,35,30.05,10.0,Calm,Calm,-,N/A,,Clear,0,2013-04-03 18:53:00
1:53 PM,66.9,36.0,32,30.03,10.0,West,8.1,-,N/A,,Partly Cloudy,270,2013-04-03 19:53:00
2:53 PM,70.0,36.0,29,30.01,10.0,WNW,11.5,19.6,N/A,,Partly Cloudy,290,2013-04-03 20:53:00
3:53 PM,68.0,35.1,30,30.00,10.0,WNW,8.1,-,N/A,,Mostly Cloudy,300,2013-04-03 21:53:00
4:53 PM,68.0,36.0,31,29.98,10.0,North,5.8,-,N/A,,Partly Cloudy,350,2013-04-03 22:53:00
5:53 PM,69.1,36.0,30,29.98,10.0,NW,9.2,-,N/A,,Scattered Clouds,320,2013-04-03 23:53:00
6:53 PM,64.9,37.0,36,29.99,10.0,NW,5.8,-,N/A,,Clear,310,2013-04-04 00:53:00
7:53 PM,61.0,37.9,42,29.97,10.0,Calm,Calm,-,N/A,,Clear,0,2013-04-04 01:53:00
8:53 PM,50.0,37.9,63,29.99,10.0,SE,8.1,-,N/A,,Clear,130,2013-04-04 02:53:00
9:53 PM,50.0,37.0,61,29.99,10.0,SSE,8.1,-,N/A,,Clear,150,2013-04-04 03:53:00
10:53 PM,48.0,37.0,66,29.99,10.0,SSE,6.9,-,N/A,,Clear,160,2013-04-04 04:53:00
11:53 PM,48.9,36.0,61,29.99,10.0,SSW,5.8,-,N/A,,Clear,200,2013-04-04 05:53:00